This is the latest recevied weather packets stored in our database for station/object ENRA. If no packets are shown the sender has not sent any weather packets the latest 10 day(s).
| Time | Temp. | Humidity | Pressure | Rain* | Wind** | Luminosity | Snow |
|---|---|---|---|---|---|---|---|
| 1788033787 | 17.78° C | 63% | 1000 hPa | - | - | - | - |
| 1788031986 | 17.78° C | 63% | 1000 hPa | - | - | - | - |
| 1788030186 | 17.78° C | 63% | 1000 hPa | - | - | - | - |
| 1788028387 | 17.78° C | 63% | 999 hPa | - | - | - | - |
| 1788026587 | 16.67° C | 67% | 1000 hPa | - | - | - | - |
| 1788024787 | 16.67° C | 67% | 1000 hPa | - | - | - | - |
| 1788022988 | 17.78° C | 63% | 1000 hPa | - | - | - | - |
| 1788021187 | 17.78° C | 59% | 1000 hPa | - | - | - | - |
| 1788019387 | 17.78° C | 59% | 1000 hPa | - | - | - | - |
| 1788017590 | 16.67° C | 63% | 1000 hPa | - | - | - | - |
| 1788015787 | 16.67° C | 63% | 1001 hPa | - | - | - | - |
| 1788014003 | 16.67° C | 63% | 1001 hPa | - | - | - | - |
| 1788012187 | 16.67° C | 67% | 1002 hPa | - | - | - | - |
| 1788008600 | 16.67° C | 63% | 1002 hPa | - | - | - | - |
| 1788006788 | 16.67° C | 63% | 1003 hPa | - | - | - | - |
| 1788004987 | 16.67° C | 59% | 1004 hPa | - | - | - | - |
| 1788003187 | 15.56° C | 63% | 1004 hPa | - | - | - | - |
| 1788001387 | 15.56° C | 58% | 1005 hPa | - | - | - | - |
| 1787999587 | 16.67° C | 55% | 1006 hPa | - | - | - | - |
| 1787997787 | 16.67° C | 55% | 1006 hPa | - | - | - | - |
| 1787995987 | 16.67° C | 55% | 1006 hPa | - | - | - | - |
| 1787994187 | 16.67° C | 55% | 1006 hPa | - | - | - | - |
| 1787992387 | 16.67° C | 55% | 1006 hPa | - | - | - | - |
| 1787990587 | 15° C | 67% | 1007 hPa | - | - | - | - |
| 1787986987 | 15° C | 76% | 1008 hPa | - | - | - | - |
* Rain since midnight (hover to see other rain measurements)
** Current wind speed in m/s (hover to see current wind gust speed)